Regional Weather Roundup
Issued by NWS

Home | Current Version | Previous Version | Graphics & Text | Print | Product List | Glossary On
Versions: 1 2 3 4 5 6 7 8 9 10 11 12 13 14 15 16 17 18 19 20 21 22 23 24 25 26 27 28 29 30 31 32 33 34 35 36 37 38 39 40 41 42 43 44 45 46 47 48 49 50
000
ASUS43 KLOT 160112
RWRIL

ILLINOIS REGIONAL WEATHER ROUNDUP
NATIONAL WEATHER SERVICE CHICAGO/ROMEOVILLE IL
700 PM CST SUN JAN 15 2017

NOTE: "FAIR" INDICATES FEW OR NO CLOUDS BELOW 12,000 FEET WITH NO
SIGNIFICANT WEATHER AND/OR OBSTRUCTIONS TO VISIBILITY.

* THESE STATIONS ARE NOT UNDER NWS QUALITY CONTROL. THEY ALSO MAY NOT
  REPORT WEATHER SUCH AS PRECIPITATION OR FOG.

ILZ001-002-007-009-015-016-024-160200-
NORTHWEST ILLINOIS

CITY           SKY/WX    TMP DP  RH WIND       PRES   REMARKS
MOLINE         CLOUDY    32  20  61 E6        30.30S WCI  26
STERLING*      CLOUDY    31  25  78 SE3       30.32S
SAVANNA*       PTCLDY    27  19  70 CALM      30.31S
$$

ILZ003-004-008-010-011-017-018-160200-
NORTH CENTRAL ILLINOIS

CITY           SKY/WX    TMP DP  RH WIND       PRES   REMARKS
ROCKFORD       CLOUDY    30  18  60 CALM      30.33R
FREEPORT*      CLOUDY    26  22  84 CALM      30.33R
ROCHELLE*      CLOUDY    30  25  82 S3        30.32S
DE KALB*       CLOUDY    30  24  77 S5        30.31F WCI  25
$$

ILZ005-006-012>014-019>023-160200-
NORTHEAST ILLINOIS

CITY           SKY/WX    TMP DP  RH WIND       PRES   REMARKS
CHICAGO-OHARE  CLOUDY    32  20  61 S3        30.32R
CHICAGO-MIDWAY CLOUDY    33  23  66 S3        30.33S
AURORA         PTCLDY    32  24  72 SE3       30.32S HAZE
LANSING*       CLOUDY    32  30  92 CALM      30.33S
JOLIET*        CLOUDY    33  29  86 CALM      30.33S FOG
WAUKEGAN       CLOUDY    25  22  88 CALM      30.32R
DUPAGE AIRPORT CLOUDY    31  18  58 CALM      30.31S
KANKAKEE*      CLOUDY    33  29  85 CALM      30.33F
WHEELING       CLOUDY    30  18  60 CALM      30.34R
MORRIS*        CLOUDY    32  29  88 CALM      30.32S FOG
ROMEOVILLE*    PTCLDY    31  30  94 CALM      30.33R
NORTHERLY ISL    N/A     31  26  82 SE3         N/A
$$

LMZ740>746-160200-
SOUTHERN LAKE MICHIGAN

STATION/POSITION SKY/WX   TEMP    WIND        PRES    VSBY  WAVE
                          AIR SEA DIR/SP/G                  HT/PER
                          (F)     (DEG/KT/KT) (MB)    (MI)  (FT/S)
HARRISON CRIB              33     170/ 10/ 10   N/A
BURNHAM HARBOR             31     120/  3/  4   N/A
CALUMET HARBOR             33     180/  2/  4 1026.4F
BURNS HARBOR               33     150/  3/  5 1027.4F
MICHIGAN CITY              32     130/  3/  4   N/A
$$

ILZ025>027-034>036-040-047-049-050-058-095>099-160200-
WEST-CENTRAL ILLINOIS

CITY           SKY/WX    TMP DP  RH WIND       PRES   REMARKS
QUINCY         FRZ RAIN  31  30  96 SE10      30.26F FOG     WCI  22
GALESBURG*     CLOUDY    32  28  84 CALM      30.30R
MACOMB*        LGT RAIN  32  30  93 SE7       30.31F WCI  26
JACKSONVILLE*  CLOUDY    32  31  98 E7        30.29F FOG     WCI  26
PITTSFIELD*    CLOUDY    32  32 100 E7        30.28F FOG     WCI  26
$$

ILZ028>032-037-038-041>044-048-051>054-059>061-160200-
CENTRAL ILLINOIS

CITY           SKY/WX    TMP DP  RH WIND       PRES   REMARKS
PONTIAC        CLOUDY    33  33  99 E5        30.33R FOG     WCI  29
BLOOMINGTON    CLOUDY    32  30  92 SE7       30.31R WCI  26
DECATUR        CLOUDY    33  32  96 E8        30.31R FOG     WCI  26
PEORIA         CLOUDY    33  29  85 CALM      30.31S FOG
LACON*         CLOUDY    32  29  89 E3        30.31R
LINCOLN*       CLOUDY    33  33  97 CALM      30.30F FOG
SPRINGFIELD    CLOUDY    34  31  88 E6        30.30F FOG     WCI  29
TAYLORVILLE    CLOUDY    32  31  97 E6        30.30F FOG     WCI  27
$$

ILZ033-039-045-046-055>057-062-063-160200-
EAST-CENTRAL ILLINOIS

CITY           SKY/WX    TMP DP  RH WIND       PRES   REMARKS
CHAMPAIGN      CLOUDY    33  30  88 E7        30.32R FOG     WCI  27
RANTOUL*       DRIZZLE   34  32  92 CALM      30.33R
MATTOON        CLOUDY    33  31  92 E3        30.30S FOG
PARIS*         CLOUDY    33  32  96 E5        30.32S FOG     WCI  28
$$

ILZ079-100>102-160200-
SOUTHWEST ILLINOIS

CITY           SKY/WX    TMP DP  RH WIND       PRES   REMARKS
ALTON          DRIZZLE   34  34 100 CALM      30.29S FOG
BELLEVILLE     CLOUDY    36  36 100 E3        30.28S FOG
CAHOKIA*       CLOUDY    37  34  89 E5        30.29S FOG     WCI  33
SPARTA*        CLOUDY    37  37  99 E5        30.29S FOG     WCI  33
$$

ILZ064>066-069>071-074>076-080>082-084>086-088>090-092>094-160200-
SOUTH-CENTRAL ILLINOIS

CITY           SKY/WX    TMP DP  RH WIND       PRES   REMARKS
CARBONDALE     CLOUDY    38  38 100 E6        30.28F WCI  33
CAIRO*         CLOUDY    40  40 100 NE8       30.27F FOG
EFFINGHAM*     DRIZZLE   35  35 100 NE3       30.32F
MARION         CLOUDY    39  39 100 E5        30.30S FOG
MT. VERNON     LGT RAIN  38  37  97 E6        30.30S WCI  33
CENTRALIA*     CLOUDY    37  37 100 E3        30.29S FOG
SALEM*         DRIZZLE   38  36  94 E3        30.30S
METROPOLIS*    FOG       40  40  99 CALM      30.29S VSB 3/4
$$

ILZ067-068-072-073-078-083-087-091-160200-
SOUTHEAST ILLINOIS

CITY           SKY/WX    TMP DP  RH WIND       PRES   REMARKS
LAWRENCEVILLE  CLOUDY    37  37 100 E6        30.32S FOG     WCI  32
FLORA*         DRIZZLE   38  37  97 E5        30.31F WCI  35
FAIRFIELD*     DRIZZLE   38  38 100 CALM      30.29F
HARRISBURG*    CLOUDY    40  39  99 E6        30.31R
ROBINSON*      CLOUDY    35  35  97 E6        30.33F FOG     WCI  30
CARMI*         LGT RAIN  39  39  99 E5        30.30F
$$

ABBREVIATIONS USED IN REMARKS
   TC - TEMPERATURE IN CELSIUS
  WCI - WIND CHILL INDEX
   HX - HEAT INDEX
  VSB - VISIBILITY
$$





USA.gov is the U.S. government's official web portal to all federal, state and local government web resources and services.